User: anonymous   Login
Location: Sandbanks Provincial Park
(47.6073°N, 57.6428°W)
Time: 23:09:43
(UTC-03:-30)
Language:

Cosmos 2034 Rocket - Orbit

View from above orbital plane
View from above orbital plane
View from above satellite
View from above satellite

Ground track
Ground track

The orbit data is extracted from the following two-line orbital elements,

1 20150U 89059B   16039.92110829 +.00000041 +00000-0 +26825-4 0  9992
2 20150 082.9392 100.7746 0028089 220.2976 244.1389 13.75615111332227
Epoch (UTC): 08 February 2016 22:06:23
Eccentricity: 0.0028089
inclination: 82.9392°
perigee height: 959 km
apogee height: 1000 km
right ascension of ascending node: 100.7746°
argument of perigee: 220.2976°
revolutions per day: 13.75615111
mean anomaly at epoch: 244.1389°
orbit number at epoch: 33222

The dashed part of the orbit path shows where the satellite is in the earth's shadow,  

DLR